Location: Demmingen
(48.6757°N, 10.4375°E)
Time: 21:14:23
(UTC+00:00)

SL-16 R/B - Pass Details

Date: 12 August 2024
Orbit: 842 x 845 km, 71.0° (Epoch: 10 September)

Event Time Altitude Azimuth Distance (km) Brightness Sun altitude
Exits shadow 02:10:03 - 283° (WNW) 3,370 5.0 -16.5°
Reaches altitude 10° 02:14:35 10° 318° (NW) 2,474 4.7 -16.0°
Maximum altitude 02:16:12 11° 334° (NNW) 2,394 4.8 -15.8°
Drops below altitude 10° 02:17:49 10° 351° (N) 2,477 5.1 -15.6°
Sets 02:22:29 0° 26° (NNE) 3,416 6.8 -15.1°
